2024-173A (61227 NORAD) Tracking and Keplerian Element Data

This shows tracking and keplerian element data for the satellite.

Feedback or suggestion? Click here.




ElementValue
Catalog61227
Name2024-173A
Epoch Orbit284
Epoch Day286.85296448
Epoch Year2024
RAAN359.4618
Inclination97.4062
Eccentricity0.0011382
Argument of Perigee202.9543
Mean Anonmoly157.1188
Mean Motion15.25619626
Decay Rate0.00038462
L11 61227U 24173A 24286.85296448 .00038462 00000+0 15069-2 0 9998
L22 61227 97.4062 359.4618 0011382 202.9543 157.1188 15.25619626 2842



Live tracking and technical data element details for 2024-173A (NORAD 61227). 2024-173A can be tracked NOW for your location showing map with azimuth and elevation plus other details from your city location.







IsCatalogInMostPopularTable: catalog: 61227, numindb: 23
Update: records affected: 1



GetName: 61227 2024-173A

Hit Count: updated at: Fri, 06 Dec 2024 10:10:07 GMT